Other Surface Observations
Issued by NWS Charleston, SC

Home | Current Version | Previous Version | Text Only | Print | Product List | Glossary On
Versions: 1 2 3 4 5 6 7 8 9 10 11 12 13 14 15 16 17 18 19 20 21 22 23 24 25 26 27 28 29 30 31 32 33 34 35 36 37 38 39 40 41 42 43 44 45 46 47 48 49 50
939
SXUS52 KCHS 221327
OSOCHS

MARINE OBSERVATIONS
NATIONAL WEATHER SERVICE CHARLESTON SC
900 AM EDT TUE AUG 22 2017

...DOWNTOWN CHARLESTON AND HARBOR...

CITY           SKY/WX    TMP DP  RH WIND       PRES   REMARKS
WATERFRONT PRK   N/A     84  79  85 CALM      29.94S HX  96

...LAKE MOULTRIE...

CITY           SKY/WX    TMP DP  RH WIND       PRES   REMARKS
PINOPOLIS        N/A     79  79 100 VRB2      30.05R

...LAKE AND SUPPLEMENTAL COASTAL OBSERVATIONS...

STATION/POSITION TIME  TEMP    WIND        PRES    WAVE   SWELL
                       AIR SEA DIR/SP/G            HT/PER HT/PER/DIR
                 (UTC) (F)     (DEG/KT/KT) (MB)    (FT/S) (FT/S/D)
FORT PULASKI     1300   79 86  310/  2/  2 1020.4
SAPELO ISLAND    1300   78        CALM     1020.0
WINYAH BAY       1245   82     350/  2     1020.0R
LAKE MURRAY      1220   79      CALM  /  3 1018.6
ACE BASIN NERRS  1245   80        CALM     1020.0R


...C-MAN AND BUOY OBSERVATIONS...

STATION/POSITION TIME  TEMP    WIND        PRES    WAVE   SWELL
                       AIR SEA DIR/SP/G            HT/PER HT/PER/DIR
                 (UTC) (F)     (DEG/KT/KT) (MB)    (FT/S) (FT/S/D)
BUOY 41004       1310   84 84  220/  2/  4 1019.1
BUOY 41008       1250   79 84  180/  8/  8 1019.5R   3/ 8   3/100/ 8
FOLLY BEACH CMAN 1300   83     200/  2/  2 1020.0R
CAPERS NS BUOY   1308   85 86  250/  6/ 10 1019.2R
FRIPP NS BUOY    1308   82     240/  6/ 10 1019.2R
5E ST. MARYS GA  1300      84                N/A     3/ 9


STATION/POSITION TIME  TEMP    WIND        PRES    WAVE   SWELL
                       AIR SEA DIR/SP/G            HT/PER HT/PER/DIR
                 (UTC) (F)     (DEG/KT/KT) (MB)    (FT/S) (FT/S/D)
FRYING PAN BUOY  1310   83 84  200/  6/  8 1019.5
BUOY 41025       1250   82 87  260/  2/  4 1019.8F   2/11   2/140/11
CAPE LOOKOUT NC  1300   82     130/  3/  4 1019.4S
BUOY 41002       1250   82 83  110/  4/  6 1020.1F   5/10   5/100/10
BUOY 41010       1310   84 85  110/ 16/ 17 1018.3
ST AUGUSTINE FL  1300   83 81  110/  7/  8 1019.6R

$$




USA.gov is the U.S. government's official web portal to all federal, state and local government web resources and services.